Crosby, ND

12:36 AM CDT on May 28, 2017 (GMT -0500)
Crosby

Weather History for KD50 - November, 2012

Change the Weather History Date:

Wednesday, November 7, 2012

  Actual Average (KISN) Record (KISN)
Temperature  
Mean Temperature 42 °F -  
Max Temperature 55 °F 42 °F 76 °F (1999)
Min Temperature 28 °F 18 °F -13 °F (1991)
Degree Days  
Heating Degree Days 24    
Moisture  
Dew Point 32 °F    
Average Humidity 68    
Maximum Humidity 100    
Minimum Humidity 44    
Precipitation  
Precipitation 0.00 in - - ()
Sea Level Pressure  
Sea Level Pressure 29.75 in    
Wind  
Wind Speed 8 mph (SSW)    
Max Wind Speed 18 mph    
Max Gust Speed 26 mph    
Visibility 10 miles    
Events Rain    
Averages and records for this station are not official NWS values.
T = Trace of Precipitation, MM = Missing Value Source: NWS Daily Summary

Daily Weather History Graph

Daily Weather History Graph

Search for Another Location

Airport or City:

Trip Planner

Search our weather history database for the weather conditions in past years. The results will help you decide how hot, cold, wet, or windy it might be!

Date:

Astronomy

Nov. 07, 2012 Rise Set
Actual Time 7:50 AM CST 5:22 PM CST
Civil Twilight 7:16 AM CST 5:56 PM CST
Nautical Twilight 6:39 AM CST 6:34 PM CST
Astronomical Twilight 6:02 AM CST 7:10 PM CST
Moon 12:12 AM CST (11/7) 2:04 PM CST (11/7)
Length of Visible Light 10h 39m
Length of Day
9h 31m
Last Quarter, 43% of the Moon is Illuminated
Nov 7
Last Quarter
Nov 13
New
Nov 20
First Quarter
Nov 28
Full
Dec 6
Last Quarter

Hourly Weather History & Observations

Time (CST) Temp. Windchill Dew Point Humidity Pressure Visibility Wind Dir Wind Speed Gust Speed Precip Events Conditions
12:15 AM 32.0 °F 28.7 °F 28.4 °F 87% 30.01 in 10.0 mi South 3.5 mph - N/A   Overcast
12:35 AM 28.4 °F - 28.4 °F 100% 30.02 in 10.0 mi Calm Calm - N/A   Overcast
12:55 AM 32.0 °F 28.7 °F 28.4 °F 87% 30.01 in 10.0 mi SSE 3.5 mph - N/A   Overcast
1:15 AM 32.0 °F 26.4 °F 28.4 °F 87% 30.00 in 10.0 mi South 5.8 mph - N/A   Overcast
1:35 AM 32.0 °F 27.5 °F 28.4 °F 87% 29.99 in 10.0 mi South 4.6 mph - N/A   Overcast
1:55 AM 32.0 °F 28.7 °F 28.4 °F 87% 29.99 in 10.0 mi South 3.5 mph - N/A   Overcast
2:15 AM 32.0 °F 27.5 °F 28.4 °F 87% 29.97 in 10.0 mi South 4.6 mph - N/A   Overcast
2:55 AM 32.0 °F 26.4 °F 28.4 °F 87% 29.94 in 10.0 mi SE 5.8 mph - N/A   Mostly Cloudy
3:15 AM 32.0 °F 27.5 °F 28.4 °F 87% 29.94 in 10.0 mi SE 4.6 mph - N/A   Partly Cloudy
3:35 AM 30.2 °F 24.3 °F 28.4 °F 93% 29.93 in 10.0 mi SSE 5.8 mph - N/A   Partly Cloudy
3:55 AM 32.0 °F 24.8 °F 28.4 °F 87% 29.92 in 10.0 mi South 8.1 mph - N/A   Clear
4:15 AM 32.0 °F 26.4 °F 28.4 °F 87% 29.91 in 10.0 mi SSE 5.8 mph - N/A   Clear
4:35 AM 33.8 °F 27.7 °F 28.4 °F 81% 29.90 in 10.0 mi SE 6.9 mph - N/A   Mostly Cloudy
4:55 AM 35.6 °F 28.6 °F 28.4 °F 75% 29.89 in 10.0 mi SE 9.2 mph - N/A   Mostly Cloudy
5:15 AM 33.8 °F 27.0 °F 28.4 °F 81% 29.88 in 10.0 mi SE 8.1 mph - N/A   Partly Cloudy
7:15 AM 37.4 °F 28.5 °F 28.4 °F 70% 29.80 in 10.0 mi SE 15.0 mph - N/A   Partly Cloudy
7:35 AM 37.4 °F 29.3 °F 28.4 °F 70% 29.81 in 10.0 mi SE 12.7 mph - N/A   Clear
7:55 AM 37.4 °F 29.8 °F 28.4 °F 70% 29.81 in 10.0 mi SE 11.5 mph - N/A   Scattered Clouds
8:15 AM 37.4 °F 29.3 °F 28.4 °F 70% 29.80 in 10.0 mi SE 12.7 mph - N/A   Mostly Cloudy
8:35 AM 37.4 °F 28.9 °F 28.4 °F 70% 29.79 in 10.0 mi SE 13.8 mph - N/A   Scattered Clouds
8:55 AM 39.2 °F 31.2 °F 28.4 °F 65% 29.78 in 10.0 mi SE 13.8 mph 23.0 mph N/A   Partly Cloudy
9:15 AM 39.2 °F 31.2 °F 28.4 °F 65% 29.77 in 10.0 mi SE 13.8 mph 20.7 mph N/A   Partly Cloudy
9:35 AM 39.2 °F 31.6 °F 28.4 °F 65% 29.75 in 10.0 mi SE 12.7 mph - N/A   Clear
9:55 AM 39.2 °F 32.5 °F 28.4 °F 65% 29.75 in 10.0 mi SE 10.4 mph - N/A   Partly Cloudy
10:15 AM 41.0 °F 34.7 °F 28.4 °F 61% 29.75 in 10.0 mi SE 10.4 mph - N/A   Scattered Clouds
10:35 AM 41.0 °F 34.7 °F 28.4 °F 61% 29.74 in 10.0 mi SSE 10.4 mph 17.3 mph N/A   Partly Cloudy
10:55 AM 44.6 °F 38.4 °F 28.4 °F 53% 29.72 in 10.0 mi SSE 12.7 mph - N/A   Clear
11:15 AM 44.6 °F 38.1 °F 28.4 °F 53% 29.72 in 10.0 mi SSE 13.8 mph - N/A   Clear
11:35 AM 46.4 °F 40.7 °F 28.4 °F 50% 29.70 in 10.0 mi SSE 12.7 mph - N/A   Clear
11:55 AM 48.2 °F - 28.4 °F 46% 29.68 in 10.0 mi South 13.8 mph 17.3 mph N/A   Clear
12:15 PM 48.2 °F - 30.2 °F 50% 29.67 in 10.0 mi South 15.0 mph - N/A   Clear
12:35 PM 48.2 °F - 30.2 °F 50% 29.66 in 10.0 mi South 15.0 mph - N/A   Partly Cloudy
12:55 PM 48.2 °F - 32.0 °F 54% 29.65 in 10.0 mi South 11.5 mph - N/A   Partly Cloudy
1:15 PM 50.0 °F - 32.0 °F 50% 29.64 in 10.0 mi South 10.4 mph - N/A   Clear
1:35 PM 53.6 °F - 32.0 °F 44% 29.63 in 10.0 mi SSW 15.0 mph - N/A   Clear
1:55 PM 53.6 °F - 32.0 °F 44% 29.62 in 10.0 mi SSW 12.7 mph 21.9 mph N/A   Clear
2:15 PM 53.6 °F - 32.0 °F 44% 29.61 in 10.0 mi SSW 9.2 mph - N/A   Clear
2:35 PM 53.6 °F - 32.0 °F 44% 29.62 in 10.0 mi SW 11.5 mph - N/A   Clear
2:55 PM 53.6 °F - 33.8 °F 47% 29.61 in 10.0 mi SSW 11.5 mph - N/A   Clear
3:15 PM 55.4 °F - 33.8 °F 44% 29.60 in 10.0 mi SSW 12.7 mph - N/A   Clear
3:35 PM 53.6 °F - 35.6 °F 51% 29.61 in 10.0 mi SW 6.9 mph - N/A   Clear
3:55 PM 53.6 °F - 35.6 °F 51% 29.61 in 10.0 mi SSW 8.1 mph - N/A   Clear
4:15 PM 53.6 °F - 35.6 °F 51% 29.62 in 10.0 mi SW 6.9 mph - N/A   Partly Cloudy
4:35 PM 51.8 °F - 37.4 °F 58% 29.61 in 10.0 mi SSW 5.8 mph - N/A   Mostly Cloudy
4:55 PM 51.8 °F - 37.4 °F 58% 29.62 in 10.0 mi WSW 6.9 mph - N/A   Overcast
5:15 PM 50.0 °F - 37.4 °F 62% 29.63 in 10.0 mi West 6.9 mph - N/A   Overcast
5:35 PM 50.0 °F - 37.4 °F 62% 29.63 in 10.0 mi SW 6.9 mph - N/A   Overcast
5:55 PM 48.2 °F - 37.4 °F 66% 29.63 in 10.0 mi SW 4.6 mph - N/A   Mostly Cloudy
6:15 PM 46.4 °F 42.4 °F 37.4 °F 71% 29.64 in 10.0 mi WSW 8.1 mph - N/A   Scattered Clouds
6:35 PM 48.2 °F - 37.4 °F 66% 29.65 in 10.0 mi WSW 11.5 mph - N/A   Overcast
6:55 PM 51.8 °F - 37.4 °F 58% 29.65 in 10.0 mi West 15.0 mph - N/A   Overcast
7:15 PM 51.8 °F - 39.2 °F 62% 29.66 in 10.0 mi West 12.7 mph - N/A   Overcast
7:35 PM 51.8 °F - 39.2 °F 62% 29.66 in 10.0 mi WSW 9.2 mph - N/A   Overcast
7:55 PM 51.8 °F - 37.4 °F 58% 29.69 in 10.0 mi WSW 17.3 mph 25.3 mph N/A   Mostly Cloudy
8:15 PM 51.8 °F - 39.2 °F 62% 29.68 in 10.0 mi West 11.5 mph 24.2 mph N/A Rain Light Rain
8:35 PM 48.2 °F - 41.0 °F 76% 29.69 in 8.0 mi SW 12.7 mph - N/A   Mostly Cloudy
8:55 PM 48.2 °F - 42.8 °F 82% 29.69 in 10.0 mi SW 11.5 mph - N/A   Mostly Cloudy
9:15 PM 46.4 °F 41.1 °F 42.8 °F 87% 29.68 in 10.0 mi West 11.5 mph - N/A   Partly Cloudy
9:35 PM 46.4 °F 40.7 °F 41.0 °F 81% 29.70 in 10.0 mi West 12.7 mph - N/A   Clear
9:55 PM 44.6 °F 38.1 °F 37.4 °F 76% 29.73 in 10.0 mi WNW 13.8 mph 25.3 mph N/A   Partly Cloudy
10:15 PM 42.8 °F 35.4 °F 35.6 °F 76% 29.75 in 10.0 mi WNW 15.0 mph 20.7 mph N/A   Partly Cloudy
10:35 PM 41.0 °F 34.3 °F 35.6 °F 81% 29.75 in 10.0 mi NW 11.5 mph 23.0 mph N/A   Clear
10:55 PM 39.2 °F 32.0 °F 33.8 °F 81% 29.76 in 10.0 mi WNW 11.5 mph 17.3 mph N/A   Clear
11:15 PM 39.2 °F 30.8 °F 33.8 °F 81% 29.79 in 10.0 mi WNW 15.0 mph - N/A   Clear
11:35 PM 37.4 °F 27.8 °F 32.0 °F 81% 29.79 in 10.0 mi WNW 17.3 mph - N/A   Partly Cloudy
11:55 PM 37.4 °F 27.5 °F 32.0 °F 81% 29.79 in 10.0 mi WNW 18.4 mph 26.5 mph N/A   Scattered Clouds